| time (UTC) | temp C | wind direction | speed KPH | gust KPH | rain 1hr cm | rain 24hr cm | rain mn cm | humidity % | barometer mb |
| 20260508054215 | 20 | 170 | 1.6 | 4.8 | 0.00 | 0.00 | 0.00 | 2 | 1016.5 |
| 20260508053717 | 20 | 90 | 1.6 | 8.0 | 0.00 | 0.00 | 0.00 | 1 | 1016.5 |
| 20260508053211 | 20 | 201 | 1.6 | 8.0 | 0.00 | 0.00 | 0.00 | 1 | 1016.4 |
| 20260508052710 | 20 | 192 | 1.6 | 4.8 | 0.00 | 0.00 | 0.00 | 1 | 1016.4 |
| 20260508052211 | 21 | 212 | 1.6 | 6.4 | 0.00 | 0.00 | 0.00 | 1 | 1016.4 |
| 20260508051715 | 21 | 211 | 3.2 | 6.4 | 0.00 | 0.00 | 0.00 | 1 | 1016.5 |
| 20260508051209 | 21 | 214 | 4.8 | 9.7 | 0.00 | 0.00 | 0.00 | 1 | 1016.6 |
| 20260508050711 | 22 | 211 | 4.8 | 11.3 | 0.00 | 0.00 | 0.00 | 1 | 1016.5 |
| 20260508050206 | 22 | 245 | 6.4 | 11.3 | 0.00 | 0.00 | 0.00 | 1 | 1016.6 |
| 20260508045705 | 22 | 203 | 6.4 | 9.7 | 0.00 | 0.00 | 0.00 | 1 | 1016.7 |
| 20260508045159 | 22 | 149 | 4.8 | 9.7 | 0.00 | 0.00 | 0.00 | 1 | 1016.7 |
| 20260508044655 | 22 | 209 | 3.2 | 9.7 | 0.00 | 0.00 | 0.00 | 1 | 1016.7 |
| 20260508044148 | 22 | 243 | 1.6 | 6.4 | 0.00 | 0.00 | 0.00 | 1 | 1016.7 |
| 20260508043652 | 22 | 230 | 1.6 | 4.8 | 0.00 | 0.00 | 0.00 | 1 | 1016.7 |
| 20260508043149 | 22 | 207 | 3.2 | 6.4 | 0.00 | 0.00 | 0.00 | 1 | 1016.6 |
| 20260508042145 | 22 | 303 | 3.2 | 9.7 | 0.00 | 0.00 | 0.00 | 1 | 1016.7 |
| 20260508041646 | 23 | 303 | 4.8 | 9.7 | 0.00 | 0.00 | 0.00 | 1 | 1016.7 |
| 20260508041146 | 23 | 242 | 3.2 | 9.7 | 0.00 | 0.00 | 0.00 | 1 | 1016.6 |
| 20260508040646 | 22 | 236 | 1.6 | 8.0 | 0.00 | 0.00 | 0.00 | 1 | 1016.6 |
| 20260508040145 | 22 | 296 | 1.6 | 8.0 | 0.00 | 0.00 | 0.00 | 1 | 1016.6 |
| 20260508035644 | 22 | 234 | 1.6 | 9.7 | 0.00 | 0.00 | 0.00 | 1 | 1016.5 |
| 20260508035144 | 23 | 272 | 3.2 | 9.7 | 0.00 | 0.00 | 0.00 | 1 | 1016.5 |
| 20260508034643 | 23 | 295 | 3.2 | 8.0 | 0.00 | 0.00 | 0.00 | 1 | 1016.5 |
| 20260508033644 | 23 | 293 | 4.8 | 12.9 | 0.00 | 0.00 | 0.00 | 1 | 1016.5 |
| 20260508033141 | 23 | 294 | 4.8 | 12.9 | 0.00 | 0.00 | 0.00 | 1 | 1016.2 |
| 20260508032641 | 22 | 306 | 3.2 | 8.0 | 0.00 | 0.00 | 0.00 | 1 | 1016.2 |
| 20260508032141 | 22 | 267 | 3.2 | 12.9 | 0.00 | 0.00 | 0.00 | 1 | 1016.2 |
| 20260508031636 | 22 | 291 | 3.2 | 12.9 | 0.00 | 0.00 | 0.00 | 1 | 1016.2 |
| 20260508030117 | 23 | 284 | 3.2 | 12.9 | 0.00 | 0.00 | 0.00 | 1 | 1016.1 |
| 20260508025611 | 23 | 293 | 3.2 | 12.9 | 0.00 | 0.00 | 0.00 | 1 | 1016.1 |
| 20260508024559 | 23 | 296 | 1.6 | 8.0 | 0.00 | 0.00 | 0.00 | 2 | 1015.9 |
| 20260508024054 | 23 | 302 | 1.6 | 9.7 | 0.00 | 0.00 | 0.00 | 2 | 1015.8 |
| 20260508023548 | 23 | 107 | 3.2 | 9.7 | 0.00 | 0.00 | 0.00 | 2 | 1015.8 |
| 20260508023041 | 23 | 295 | 4.8 | 12.9 | 0.00 | 0.00 | 0.00 | 2 | 1015.7 |
| 20260508022536 | 24 | 301 | 4.8 | 14.5 | 0.00 | 0.00 | 0.00 | 2 | 1015.6 |
| 20260508022032 | 24 | 257 | 6.4 | 14.5 | 0.00 | 0.00 | 0.00 | 2 | 1015.6 |
| 20260508021020 | 24 | 291 | 3.2 | 9.7 | 0.00 | 0.00 | 0.00 | 2 | 1015.3 |
| 20260508015459 | 25 | 309 | 3.2 | 11.3 | 0.00 | 0.00 | 0.00 | 2 | 1015.2 |
| 20260508014954 | 25 | 285 | 3.2 | 11.3 | 0.00 | 0.00 | 0.00 | 2 | 1015.2 |
| 20260508014447 | 26 | 317 | 4.8 | 11.3 | 0.00 | 0.00 | 0.00 | 1 | 1015.1 |
| 20260508013942 | 27 | 281 | 4.8 | 11.3 | 0.00 | 0.00 | 0.00 | 1 | 1015.1 |
| 20260508013436 | 27 | 323 | 4.8 | 11.3 | 0.00 | 0.00 | 0.00 | 1 | 1015.0 |
| 20260508012423 | 27 | 308 | 6.4 | 16.1 | 0.00 | 0.00 | 0.00 | 1 | 1015.0 |
| 20260508011917 | 27 | 328 | 6.4 | 16.1 | 0.00 | 0.00 | 0.00 | 1 | 1015.0 |
| 20260508011412 | 27 | 343 | 4.8 | 11.3 | 0.00 | 0.00 | 0.00 | 1 | 1015.1 |
| 20260508010906 | 27 | 290 | 4.8 | 11.3 | 0.00 | 0.00 | 0.00 | 1 | 1015.0 |
| 20260508010402 | 27 | 299 | 6.4 | 12.9 | 0.00 | 0.00 | 0.00 | 1 | 1015.0 |
| 20260508005853 | 27 | 331 | 6.4 | 14.5 | 0.00 | 0.00 | 0.00 | 1 | 1015.0 |
| 20260508005347 | 27 | 334 | 6.4 | 12.9 | 0.00 | 0.00 | 0.00 | 1 | 1015.0 |
| 20260508004844 | 27 | 310 | 4.8 | 12.9 | 0.00 | 0.00 | 0.00 | 1 | 1014.9 |
| 20260508004336 | 27 | 329 | 6.4 | 12.9 | 0.00 | 0.00 | 0.00 | 1 | 1014.9 |
| 20260508003829 | 27 | 319 | 6.4 | 16.1 | 0.00 | 0.00 | 0.00 | 1 | 1014.9 |
| 20260508003326 | 27 | 283 | 9.7 | 25.7 | 0.00 | 0.00 | 0.00 | 1 | 1014.9 |
| 20260508002820 | 28 | 281 | 6.4 | 25.7 | 0.00 | 0.00 | 0.00 | 1 | 1014.9 |
| 20260508002311 | 28 | 311 | 4.8 | 16.1 | 0.00 | 0.00 | 0.00 | 1 | 1014.9 |
| 20260508001808 | 28 | 294 | 6.4 | 16.1 | 0.00 | 0.00 | 0.00 | 1 | 1015.0 |
| 20260508000312 | 28 | 309 | 3.2 | 12.9 | 0.00 | 0.00 | 0.00 | 1 | 1015.0 |
| 20260507235809 | 28 | 254 | 6.4 | 16.1 | 0.00 | 0.00 | 0.00 | 1 | 1015.0 |
| 20260507234809 | 28 | 282 | 6.4 | 17.7 | 0.00 | 0.00 | 0.00 | 1 | 1015.3 |
| 20260507233807 | 28 | 123 | 4.8 | 17.7 | 0.00 | 0.00 | 0.00 | 1 | 1015.2 |
| 20260507233306 | 28 | 259 | 4.8 | 17.7 | 0.00 | 0.00 | 0.00 | 1 | 1015.2 |
| 20260507232809 | 28 | 290 | 3.2 | 9.7 | 0.00 | 0.00 | 0.00 | 1 | 1015.3 |
| 20260507231808 | 28 | 300 | 6.4 | 17.7 | 0.00 | 0.00 | 0.00 | 1 | 1015.4 |
| 20260507231306 | 28 | 359 | 3.2 | 17.7 | 0.00 | 0.00 | 0.00 | 1 | 1015.4 |
| 20260507230807 | 28 | 295 | 1.6 | 14.5 | 0.00 | 0.00 | 0.00 | 1 | 1015.3 |
| 20260507230309 | 27 | 73 | 6.4 | 16.1 | 0.00 | 0.00 | 0.00 | 1 | 1015.4 |
| 20260507225306 | 27 | 314 | 6.4 | 17.7 | 0.00 | 0.00 | 0.00 | 1 | 1015.6 |
| 20260507224801 | 27 | 291 | 6.4 | 14.5 | 0.00 | 0.00 | 0.00 | 1 | 1015.6 |
| 20260507223746 | 27 | 239 | 6.4 | 14.5 | 0.00 | 0.00 | 0.00 | 1 | 1015.7 |
| 20260507223240 | 28 | 287 | 4.8 | 16.1 | 0.00 | 0.00 | 0.00 | 1 | 1015.7 |
| 20260507222737 | 28 | 257 | 6.4 | 16.1 | 0.00 | 0.00 | 0.00 | 1 | 1015.8 |
| 20260507221726 | 28 | 307 | 6.4 | 16.1 | 0.00 | 0.00 | 0.00 | 1 | 1016.0 |
| 20260507221217 | 27 | 268 | 8.0 | 17.7 | 0.00 | 0.00 | 0.00 | 1 | 1016.0 |
| 20260507220711 | 27 | 308 | 6.4 | 17.7 | 0.00 | 0.00 | 0.00 | 1 | 1016.0 |
| 20260507215701 | 27 | 352 | 6.4 | 11.3 | 0.00 | 0.00 | 0.00 | 1 | 1016.1 |
| 20260507214648 | 27 | 32 | 6.4 | 17.7 | 0.00 | 0.00 | 0.00 | 1 | 1016.2 |
| 20260507214153 | 27 | 73 | 4.8 | 12.9 | 0.00 | 0.00 | 0.00 | 1 | 1016.4 |
| 20260507213648 | 27 | 304 | 6.4 | 14.5 | 0.00 | 0.00 | 0.00 | 1 | 1016.4 |
| 20260507213147 | 27 | 310 | 8.0 | 16.1 | 0.00 | 0.00 | 0.00 | 1 | 1016.6 |
| 20260507212653 | 27 | 305 | 6.4 | 16.1 | 0.00 | 0.00 | 0.00 | 1 | 1016.6 |
| 20260507212148 | 27 | 348 | 6.4 | 16.1 | 0.00 | 0.00 | 0.00 | 1 | 1016.7 |
| 20260507211651 | 27 | 326 | 6.4 | 17.7 | 0.00 | 0.00 | 0.00 | 1 | 1016.8 |
| 20260507211154 | 27 | 283 | 8.0 | 17.7 | 0.00 | 0.00 | 0.00 | 1 | 1016.8 |
| 20260507210651 | 27 | 344 | 6.4 | 16.1 | 0.00 | 0.00 | 0.00 | 1 | 1016.9 |
| 20260507210154 | 27 | 295 | 3.2 | 16.1 | 0.00 | 0.00 | 0.00 | 1 | 1017.0 |
| 20260507205655 | 28 | 77 | 1.6 | 11.3 | 0.00 | 0.00 | 0.00 | 1 | 1017.0 |
| 20260507205152 | 27 | 311 | 4.8 | 16.1 | 0.00 | 0.00 | 0.00 | 1 | 1017.0 |
| 20260507203149 | 26 | 342 | 8.0 | 19.3 | 0.00 | 0.00 | 0.00 | 1 | 1017.6 |
| 20260507202648 | 26 | 292 | 6.4 | 19.3 | 0.00 | 0.00 | 0.00 | 1 | 1017.5 |
| 20260507202148 | 26 | 336 | 6.4 | 16.1 | 0.00 | 0.00 | 0.00 | 1 | 1017.5 |
| 20260507201650 | 26 | 300 | 6.4 | 16.1 | 0.00 | 0.00 | 0.00 | 1 | 1017.5 |
| 20260507201150 | 26 | 33 | 8.0 | 17.7 | 0.00 | 0.00 | 0.00 | 1 | 1017.6 |
| 20260507200148 | 26 | 5 | 4.8 | 12.9 | 0.00 | 0.00 | 0.00 | 1 | 1017.7 |
| 20260507195649 | 26 | 86 | 3.2 | 11.3 | 0.00 | 0.00 | 0.00 | 1 | 1017.8 |
| 20260507195148 | 26 | 31 | 3.2 | 11.3 | 0.00 | 0.00 | 0.00 | 1 | 1018.0 |
| 20260507194652 | 26 | 50 | 3.2 | 9.7 | 0.00 | 0.00 | 0.00 | 2 | 1018.0 |
| 20260507194148 | 26 | 231 | 4.8 | 17.7 | 0.00 | 0.00 | 0.00 | 2 | 1018.0 |
| 20260507193647 | 25 | 298 | 6.4 | 17.7 | 0.00 | 0.00 | 0.00 | 2 | 1018.2 |
| 20260507193146 | 25 | 271 | 6.4 | 16.1 | 0.00 | 0.00 | 0.00 | 3 | 1018.2 |
| 20260507192146 | 25 | 56 | 6.4 | 17.7 | 0.00 | 0.00 | 0.00 | 2 | 1018.3 |
| 20260507191646 | 26 | 319 | 4.8 | 17.7 | 0.00 | 0.00 | 0.00 | 2 | 1018.4 |
| 20260507191147 | 26 | 127 | 4.8 | 14.5 | 0.00 | 0.00 | 0.00 | 2 | 1018.4 |
| 20260507190646 | 25 | 340 | 4.8 | 14.5 | 0.00 | 0.00 | 0.00 | 2 | 1018.5 |
| 20260507190146 | 25 | 42 | 4.8 | 12.9 | 0.00 | 0.00 | 0.00 | 2 | 1018.6 |
| 20260507185645 | 25 | 316 | 4.8 | 12.9 | 0.00 | 0.00 | 0.00 | 3 | 1018.8 |
| 20260507185147 | 25 | 298 | 6.4 | 19.3 | 0.00 | 0.00 | 0.00 | 3 | 1018.8 |
| 20260507184645 | 25 | 304 | 6.4 | 20.9 | 0.00 | 0.00 | 0.00 | 3 | 1018.8 |
| 20260507184145 | 25 | 335 | 8.0 | 20.9 | 0.00 | 0.00 | 0.00 | 3 | 1018.8 |
| 20260507183646 | 25 | 326 | 4.8 | 14.5 | 0.00 | 0.00 | 0.00 | 3 | 1018.8 |
| 20260507183149 | 25 | 270 | 6.4 | 11.3 | 0.00 | 0.00 | 0.00 | 4 | 1018.8 |
| 20260507182643 | 25 | 33 | 6.4 | 25.7 | 0.00 | 0.00 | 0.00 | 5 | 1018.8 |
| 20260507181632 | 24 | 84 | 4.8 | 12.9 | 0.00 | 0.00 | 0.00 | 5 | 1018.9 |
| 20260507181129 | 24 | 77 | 4.8 | 12.9 | 0.00 | 0.00 | 0.00 | 5 | 1018.9 |
| 20260507180619 | 25 | 132 | 4.8 | 17.7 | 0.00 | 0.00 | 0.00 | 5 | 1019.0 |
| 20260507180115 | 24 | 91 | 4.8 | 17.7 | 0.00 | 0.00 | 0.00 | 5 | 1019.0 |
| 20260507175608 | 24 | 139 | 3.2 | 11.3 | 0.00 | 0.00 | 0.00 | 5 | 1019.1 |
| 20260507175101 | 24 | 80 | 3.2 | 11.3 | 0.00 | 0.00 | 0.00 | 4 | 1019.2 |
| 20260507174554 | 24 | 237 | 3.2 | 9.7 | 0.00 | 0.00 | 0.00 | 5 | 1019.2 |
| 20260507174047 | 23 | 231 | 4.8 | 11.3 | 0.00 | 0.00 | 0.00 | 6 | 1019.3 |
| 20260507173546 | 23 | 88 | 4.8 | 11.3 | 0.00 | 0.00 | 0.00 | 6 | 1019.3 |
| 20260507173046 | 23 | 41 | 4.8 | 11.3 | 0.00 | 0.00 | 0.00 | 6 | 1019.2 |
| 20260507172546 | 23 | 101 | 6.4 | 14.5 | 0.00 | 0.00 | 0.00 | 7 | 1019.2 |
| 20260507172047 | 23 | 11 | 6.4 | 14.5 | 0.00 | 0.00 | 0.00 | 6 | 1019.3 |
| 20260507171545 | 23 | 354 | 4.8 | 12.9 | 0.00 | 0.00 | 0.00 | 8 | 1019.2 |
| 20260507170550 | 23 | 27 | 4.8 | 11.3 | 0.00 | 0.00 | 0.00 | 9 | 1019.3 |
| 20260507165546 | 22 | 293 | 3.2 | 8.0 | 0.00 | 0.00 | 0.00 | 10 | 1019.4 |
| 20260507165049 | 22 | 19 | 3.2 | 8.0 | 0.00 | 0.00 | 0.00 | 10 | 1019.4 |
| 20260507164546 | 22 | 309 | 1.6 | 8.0 | 0.00 | 0.00 | 0.00 | 10 | 1019.4 |
| 20260507164047 | 22 | 349 | 1.6 | 8.0 | 0.00 | 0.00 | 0.00 | 10 | 1019.4 |
| 20260507163543 | 21 | 342 | 4.8 | 12.9 | 0.00 | 0.00 | 0.00 | 11 | 1019.4 |
| 20260507163042 | 21 | 320 | 4.8 | 12.9 | 0.00 | 0.00 | 0.00 | 11 | 1019.6 |
| 20260507162541 | 21 | 8 | 3.2 | 6.4 | 0.00 | 0.00 | 0.00 | 11 | 1019.4 |
| 20260507162043 | 21 | 113 | 3.2 | 8.0 | 0.00 | 0.00 | 0.00 | 11 | 1019.7 |
| 20260507161541 | 21 | 13 | 4.8 | 8.0 | 0.00 | 0.00 | 0.00 | 11 | 1019.8 |
| 20260507161036 | 21 | 22 | 4.8 | 11.3 | 0.00 | 0.00 | 0.00 | 11 | 1019.7 |
| 20260507160531 | 21 | 347 | 3.2 | 11.3 | 0.00 | 0.00 | 0.00 | 11 | 1019.8 |
| 20260507160022 | 21 | 32 | 3.2 | 8.0 | 0.00 | 0.00 | 0.00 | 11 | 1019.8 |
| 20260507155514 | 21 | 337 | 3.2 | 9.7 | 0.00 | 0.00 | 0.00 | 11 | 1019.9 |
| 20260507155011 | 20 | 37 | 3.2 | 9.7 | 0.00 | 0.00 | 0.00 | 12 | 1019.9 |
| 20260507154509 | 20 | 73 | 3.2 | 12.9 | 0.00 | 0.00 | 0.00 | 12 | 1020.0 |
| 20260507153959 | 20 | 79 | 4.8 | 12.9 | 0.00 | 0.00 | 0.00 | 12 | 1020.0 |
| 20260507152947 | 20 | 98 | 4.8 | 11.3 | 0.00 | 0.00 | 0.00 | 11 | 1020.0 |
| 20260507151935 | 19 | 105 | 3.2 | 11.3 | 0.00 | 0.00 | 0.00 | 10 | 1020.0 |
| 20260507151429 | 19 | 77 | 3.2 | 9.7 | 0.00 | 0.00 | 0.00 | 9 | 1020.0 |
| 20260507150923 | 19 | 320 | 3.2 | 9.7 | 0.00 | 0.00 | 0.00 | 10 | 1020.0 |
| 20260507150417 | 19 | 352 | 1.6 | 8.0 | 0.00 | 0.00 | 0.00 | 10 | 1020.1 |
| 20260507145910 | 19 | 84 | 1.6 | 6.4 | 0.00 | 0.00 | 0.00 | 9 | 1020.1 |
| 20260507145405 | 18 | 326 | 1.6 | 9.7 | 0.00 | 0.00 | 0.00 | 9 | 1020.1 |
| 20260507144859 | 18 | 18 | 1.6 | 9.7 | 0.00 | 0.00 | 0.00 | 9 | 1020.1 |
| 20260507144353 | 18 | 16 | 1.6 | 6.4 | 0.00 | 0.00 | 0.00 | 9 | 1020.1 |
| 20260507143846 | 18 | 59 | 0.0 | 3.2 | 0.00 | 0.00 | 0.00 | 9 | 1020.1 |
| 20260507142835 | 17 | 94 | 1.6 | 9.7 | 0.00 | 0.00 | 0.00 | 10 | 1020.2 |
| 20260507142329 | 17 | 172 | 1.6 | 6.4 | 0.00 | 0.00 | 0.00 | 10 | 1020.1 |
| 20260507141822 | 17 | 70 | 1.6 | 4.8 | 0.00 | 0.00 | 0.00 | 10 | 1020.1 |
| 20260507141316 | 17 | 89 | 1.6 | 4.8 | 0.00 | 0.00 | 0.00 | 10 | 1020.1 |
| 20260507140811 | 17 | 88 | 0.0 | 3.2 | 0.00 | 0.00 | 0.00 | 10 | 1020.1 |
| 20260507140304 | 17 | 97 | 0.0 | 4.8 | 0.00 | 0.00 | 0.00 | 11 | 1020.0 |
| 20260507135252 | 16 | 89 | 1.6 | 8.0 | 0.00 | 0.00 | 0.00 | 11 | 1020.1 |
| 20260507134746 | 16 | 103 | 0.0 | 6.4 | 0.00 | 0.00 | 0.00 | 11 | 1020.0 |
| 20260507133735 | 16 | 109 | 0.0 | 1.6 | 0.00 | 0.00 | 0.00 | 11 | 1019.9 |
| 20260507133229 | 15 | 174 | 0.0 | 1.6 | 0.00 | 0.00 | 0.00 | 12 | 1019.9 |
| 20260507132722 | 15 | 160 | 0.0 | 3.2 | 0.00 | 0.00 | 0.00 | 12 | 1019.9 |
| 20260507132218 | 14 | 95 | 0.0 | 3.2 | 0.00 | 0.00 | 0.00 | 13 | 1019.8 |
| 20260507131712 | 13 | 205 | 0.0 | 1.6 | 0.00 | 0.00 | 0.00 | 15 | 1019.7 |
| 20260507131204 | 12 | 176 | 0.0 | 1.6 | 0.00 | 0.00 | 0.00 | 15 | 1019.6 |
| 20260507130154 | 12 | 176 | 0.0 | 3.2 | 0.00 | 0.00 | 0.00 | 15 | 1019.6 |
| 20260507125647 | 12 | 177 | 0.0 | 1.6 | 0.00 | 0.00 | 0.00 | 15 | 1019.6 |
| 20260507125141 | 11 | 141 | 0.0 | 3.2 | 0.00 | 0.00 | 0.00 | 16 | 1019.4 |
| 20260507124130 | 11 | 153 | 1.6 | 4.8 | 0.00 | 0.00 | 0.00 | 17 | 1019.4 |
| 20260507123623 | 10 | 116 | 0.0 | 4.8 | 0.00 | 0.00 | 0.00 | 18 | 1019.4 |
| 20260507123119 | 10 | 206 | 0.0 | 1.6 | 0.00 | 0.00 | 0.00 | 18 | 1019.4 |
| 20260507122611 | 10 | 194 | 0.0 | 1.6 | 0.00 | 0.00 | 0.00 | 18 | 1019.3 |
| 20260507121052 | 10 | 204 | 0.0 | 1.6 | 0.00 | 0.00 | 0.00 | 18 | 1019.4 |
| 20260507120546 | 10 | 207 | 0.0 | 1.6 | 0.00 | 0.00 | 0.00 | 18 | 1019.4 |
| 20260507120044 | 10 | 215 | 0.0 | 3.2 | 0.00 | 0.00 | 0.00 | 19 | 1019.3 |
| 20260507115541 | 10 | 215 | 0.0 | 3.2 | 0.00 | 0.00 | 0.00 | 19 | 1019.4 |
| 20260507114537 | 10 | 202 | 0.0 | 1.6 | 0.00 | 0.00 | 0.00 | 19 | 1019.4 |
| 20260507114045 | 10 | 183 | 0.0 | 1.6 | 0.00 | 0.00 | 0.00 | 18 | 1019.4 |
| 20260507113536 | 10 | 163 | 0.0 | 1.6 | 0.00 | 0.00 | 0.00 | 18 | 1019.3 |
| 20260507112535 | 11 | 120 | 0.0 | 3.2 | 0.00 | 0.00 | 0.00 | 17 | 1019.3 |
| 20260507111029 | 11 | 101 | 1.6 | 4.8 | 0.00 | 0.00 | 0.00 | 16 | 1019.3 |
| 20260507105025 | 12 | 162 | 1.6 | 3.2 | 0.00 | 0.00 | 0.00 | 16 | 1019.2 |
| 20260507104527 | 13 | 161 | 1.6 | 3.2 | 0.00 | 0.00 | 0.00 | 15 | 1019.3 |
| 20260507104029 | 13 | 174 | 1.6 | 3.2 | 0.00 | 0.00 | 0.00 | 15 | 1019.3 |
| 20260507103522 | 13 | 186 | 1.6 | 4.8 | 0.00 | 0.00 | 0.00 | 14 | 1019.4 |
| 20260507103020 | 13 | 169 | 3.2 | 4.8 | 0.00 | 0.00 | 0.00 | 14 | 1019.4 |
| 20260507102021 | 14 | 160 | 1.6 | 9.7 | 0.00 | 0.00 | 0.00 | 14 | 1019.4 |
| 20260507101522 | 14 | 169 | 1.6 | 9.7 | 0.00 | 0.00 | 0.00 | 13 | 1019.6 |
| 20260507101021 | 14 | 141 | 1.6 | 4.8 | 0.00 | 0.00 | 0.00 | 13 | 1019.6 |
| 20260507100522 | 14 | 157 | 1.6 | 4.8 | 0.00 | 0.00 | 0.00 | 13 | 1019.4 |
| 20260507100022 | 13 | 193 | 0.0 | 4.8 | 0.00 | 0.00 | 0.00 | 13 | 1019.4 |
| 20260507095523 | 13 | 176 | 0.0 | 3.2 | 0.00 | 0.00 | 0.00 | 13 | 1019.4 |
| 20260507094517 | 15 | 158 | 1.6 | 3.2 | 0.00 | 0.00 | 0.00 | 12 | 1019.4 |
| 20260507094017 | 15 | 192 | 1.6 | 3.2 | 0.00 | 0.00 | 0.00 | 12 | 1019.3 |
| 20260507093517 | 15 | 179 | 1.6 | 3.2 | 0.00 | 0.00 | 0.00 | 12 | 1019.2 |
| 20260507093017 | 15 | 184 | 1.6 | 4.8 | 0.00 | 0.00 | 0.00 | 12 | 1019.3 |
| 20260507092517 | 15 | 169 | 1.6 | 4.8 | 0.00 | 0.00 | 0.00 | 13 | 1019.2 |
| 20260507092018 | 15 | 195 | 3.2 | 4.8 | 0.00 | 0.00 | 0.00 | 12 | 1019.3 |
| 20260507091517 | 15 | 167 | 1.6 | 4.8 | 0.00 | 0.00 | 0.00 | 13 | 1019.3 |
| 20260507091018 | 15 | 162 | 1.6 | 4.8 | 0.00 | 0.00 | 0.00 | 14 | 1019.2 |
| 20260507085516 | 15 | 155 | 1.6 | 4.8 | 0.00 | 0.00 | 0.00 | 12 | 1019.3 |
| 20260507085018 | 14 | 162 | 1.6 | 3.2 | 0.00 | 0.00 | 0.00 | 13 | 1019.3 |
| 20260507084519 | 13 | 172 | 0.0 | 4.8 | 0.00 | 0.00 | 0.00 | 16 | 1019.3 |
| 20260507084017 | 14 | 171 | 1.6 | 4.8 | 0.00 | 0.00 | 0.00 | 16 | 1019.4 |
| 20260507083518 | 13 | 174 | 1.6 | 4.8 | 0.00 | 0.00 | 0.00 | 17 | 1019.4 |
| 20260507083016 | 13 | 170 | 1.6 | 4.8 | 0.00 | 0.00 | 0.00 | 18 | 1019.4 |
| 20260507082516 | 13 | 172 | 1.6 | 4.8 | 0.00 | 0.00 | 0.00 | 17 | 1019.4 |
| 20260507081515 | 13 | 179 | 1.6 | 3.2 | 0.00 | 0.00 | 0.00 | 16 | 1019.3 |
| 20260507081013 | 13 | 176 | 1.6 | 3.2 | 0.00 | 0.00 | 0.00 | 16 | 1019.3 |
| 20260507080515 | 13 | 205 | 0.0 | 1.6 | 0.00 | 0.00 | 0.00 | 17 | 1019.4 |
| 20260507075515 | 13 | 174 | 1.6 | 3.2 | 0.00 | 0.00 | 0.00 | 16 | 1019.2 |
| 20260507075008 | 13 | 180 | 0.0 | 3.2 | 0.00 | 0.00 | 0.00 | 16 | 1019.3 |
| 20260507074508 | 14 | 173 | 0.0 | 1.6 | 0.00 | 0.00 | 0.00 | 16 | 1019.3 |
| 20260507074006 | 14 | 169 | 0.0 | 1.6 | 0.00 | 0.00 | 0.00 | 16 | 1019.3 |
| 20260507073509 | 14 | 167 | 0.0 | 3.2 | 0.00 | 0.00 | 0.00 | 16 | 1019.2 |
| 20260507072503 | 14 | 169 | 1.6 | 3.2 | 0.00 | 0.00 | 0.00 | 17 | 1019.2 |
| 20260507072007 | 14 | 178 | 1.6 | 3.2 | 0.00 | 0.00 | 0.00 | 17 | 1019.2 |
| 20260507071501 | 14 | 189 | 1.6 | 3.2 | 0.00 | 0.00 | 0.00 | 17 | 1019.2 |
| 20260507070455 | 14 | 194 | 1.6 | 3.2 | 0.00 | 0.00 | 0.00 | 18 | 1019.2 |
| 20260507065954 | 15 | 195 | 0.0 | 3.2 | 0.00 | 0.00 | 0.00 | 18 | 1019.2 |
| 20260507065450 | 15 | 193 | 0.0 | 3.2 | 0.00 | 0.00 | 0.00 | 18 | 1019.2 |
| 20260507064954 | 15 | 179 | 0.0 | 0.0 | 0.00 | 0.00 | 0.00 | 17 | 1019.2 |
| 20260507064447 | 16 | 179 | 0.0 | 0.0 | 0.00 | 0.00 | 0.00 | 17 | 1019.1 |
| 20260507063946 | 16 | 164 | 0.0 | 0.0 | 0.00 | 0.00 | 0.00 | 16 | 1019.0 |
| 20260507062947 | 17 | 257 | 0.0 | 4.8 | 0.00 | 0.00 | 0.00 | 16 | 1019.0 |
| 20260507061948 | 17 | 275 | 0.0 | 3.2 | 0.00 | 0.00 | 0.00 | 18 | 1018.8 |
| 20260507061446 | 17 | 235 | 0.0 | 6.4 | 0.00 | 0.00 | 0.00 | 19 | 1018.8 |
| 20260507060947 | 17 | 276 | 1.6 | 6.4 | 0.00 | 0.00 | 0.00 | 19 | 1018.8 |
| 20260507060446 | 17 | 249 | 1.6 | 6.4 | 0.00 | 0.00 | 0.00 | 19 | 1018.8 |
| 20260507055943 | 17 | 264 | 0.0 | 4.8 | 0.00 | 0.00 | 0.00 | 19 | 1018.8 |
| 20260507055450 | 17 | 271 | 0.0 | 4.8 | 0.00 | 0.00 | 0.00 | 20 | 1018.6 |